Terminal Aerodrome Forecast
Issued by NWS Wilmington, NC

Home | Current Version | Previous Version | Text Only | Print | Product List | Glossary On
Versions: 1 2 3 4 5 6 7 8 9 10 11 12 13
000
FTUS42 KILM 272332
TAFLBT
TAF
KLBT 272332Z 2800/2824 15007KT P6SM SCT060
     FM280100 00000KT P6SM SKC
     FM281000 04003KT P6SM SCT008 SCT080 BKN250
     FM281300 02006KT P6SM SCT025 SCT080 BKN250
     FM281800 07006KT 6SM -SHRA OVC025=

USA.gov is the U.S. government's official web portal to all federal, state and local government web resources and services.